Theta_e
355 363 367 367 364 363 364 364 363 361 361 361 361 362 362 362 362 362 363 364 364 363 362 358 357 356 355 356 357 357 358 358 357 353 352 351 352 352 353 357 350 347 351
357 363 366 367 366 364 364 364 362 361 361 361 362 362 362 363 362 361 362 362 364 362 360 357 355 354 354 355 355 355 355 356 357 356 352 351 350 350 350 349 349 348 349
356 361 364 366 366 364 364 363 361 360 361 361 361 362 362 363 363 362 361 361 361 359 357 355 354 354 353 354 354 353 354 354 354 355 353 346 345 350 350 349 348 348 348
357 358 361 365 365 364 364 362 360 360 361 361 361 362 362 363 363 362 361 360 360 357 356 356 355 354 353 353 352 352 354 357 358 357 353 350 344 351 350 349 348 348 348
354 358 362 365 364 364 363 361 360 360 360 361 361 362 362 362 362 361 360 359 357 354 354 355 355 355 355 355 355 355 356 357 356 352 345 348 342 350 351 352 349 349 348
354 358 363 364 364 363 363 362 361 361 361 361 361 362 361 362 361 360 360 358 357 356 354 356 356 357 356 356 356 356 354 355 355 342 341 346 343 355 353 353 351 348 349
354 358 361 363 364 363 363 362 361 361 360 361 361 361 361 360 360 360 359 358 357 356 356 356 357 356 355 355 355 354 352 353 346 341 340 346 346 354 356 355 353 351 348
354 357 360 363 363 362 362 362 360 360 360 360 360 360 360 359 359 359 358 358 356 356 357 357 356 356 354 353 353 352 352 351 345 339 337 346 351 355 357 356 355 354 350
353 354 357 359 362 363 362 361 360 359 359 360 359 359 359 359 358 358 358 357 355 354 355 356 356 355 354 353 353 352 352 351 343 341 338 344 355 357 358 357 356 356 355
349 351 352 355 358 359 359 361 360 359 360 359 359 358 358 358 357 357 355 356 356 354 354 355 355 355 354 353 352 352 353 352 343 340 336 338 355 358 359 357 357 357 357
347 347 349 351 353 355 356 359 360 361 360 359 359 358 355 350 352 354 354 355 356 355 354 354 355 354 353 353 352 353 353 343 339 335 335 344 355 359 358 357 357 357 358
341 343 346 346 347 348 355 355 354 356 355 354 353 353 349 344 347 350 351 355 355 355 354 353 353 353 352 342 336 349 344 341 336 332 327 350 354 358 357 356 355 356 357
342 343 342 343 343 342 345 348 347 348 347 347 346 348 344 344 346 346 343 347 348 353 346 348 346 345 340 335 331 327 338 335 331 329 331 353 352 354 353 351 351 351 352
342 342 342 342 341 340 345 341 341 342 341 340 342 346 341 339 340 340 345 344 344 343 341 337 339 338 337 334 331 329 333 332 332 330 337 352 350 352 354 352 352 352 352
341 341 342 343 342 343 342 340 342 341 341 341 341 346 342 339 339 343 341 343 343 341 340 336 338 337 336 334 334 335 336 334 333 333 332 351 350 350 354 355 354 353 353
339 340 343 343 343 348 344 341 342 343 342 342 342 346 345 343 341 346 342 345 343 341 340 341 342 339 339 340 340 342 342 343 344 343 341 340 350 348 351 354 354 354 354
337 336 338 343 345 350 349 345 343 347 344 344 344 345 347 348 346 352 349 347 346 348 347 347 347 347 345 346 342 342 343 346 340 343 346 344 345 350 349 351 352 354 353
333 332 335 342 344 351 351 353 350 348 348 349 349 349 348 351 353 352 350 349 350 347 340 336 337 334 336 344 342 345 344 344 342 343 342 342 345 345 349 351 351 351 352
333 331 333 335 337 348 353 355 352 351 351 349 351 355 351 353 354 351 351 349 349 342 336 334 329 335 332 340 341 338 338 339 339 341 340 342 342 343 341 345 346 345 342
332 332 332 336 334 335 355 355 352 352 354 353 352 355 356 356 355 352 350 351 348 343 334 334 327 328 334 338 341 339 337 337 338 336 337 339 338 338 337 339 336 333 338
331 332 331 332 332 333 354 353 351 349 352 351 355 353 354 356 356 352 349 348 348 345 342 339 340 343 340 338 330 327 328 330 329 332 330 331 335 338 336 337 336 332 330
329 330 329 336 338 338 355 355 352 351 351 352 351 352 353 353 351 352 349 347 348 345 343 344 341 337 334 333 326 324 318 320 326 327 326 329 330 334 335 333 334 333 333
323 326 328 334 350 353 354 354 350 347 344 346 346 348 351 353 352 351 350 348 345 342 344 344 339 334 328 329 327 321 313 314 318 322 326 328 328 328 333 335 337 337 334
327 332 333 335 339 348 348 348 342 337 339 337 345 349 349 352 349 350 349 347 344 340 334 335 339 334 329 323 323 327 325 322 318 315 320 325 326 326 324 334 334 335 332
323 325 331 334 339 342 345 346 342 338 338 339 342 347 347 348 349 351 348 343 339 336 333 332 330 329 328 326 323 321 319 317 316 316 311 314 316 319 321 322 323 332 336
321 327 332 335 334 342 345 343 345 345 341 340 341 344 344 345 346 344 343 338 337 333 331 327 328 327 328 325 325 322 317 314 314 313 309 310 310 314 318 317 318 324 325
Wind_Speed
7 12 16 16 18 18 17 17 16 17 16 16 16 14 13 14 15 16 15 14 14 14 13 12 12 12 12 13 12 11 10 10 10 12 11 11 11 12 12 17 14 11 12
17 11 16 16 17 18 17 16 16 16 16 16 15 14 13 13 14 14 14 13 14 14 13 12 12 12 11 11 10 7 8 8 7 8 9 9 8 11 13 13 13 10 11
16 12 14 17 17 18 17 16 15 16 16 16 15 13 13 13 13 13 13 13 13 13 12 12 11 11 10 9 7 4 4 5 6 4 2 3 4 8 13 13 11 10 11
17 12 13 17 18 19 18 17 16 15 16 16 15 14 13 12 12 12 12 12 12 12 12 11 11 10 9 8 6 2 5 6 5 4 2 4 5 9 11 11 10 9 9
16 13 15 18 19 19 18 18 17 16 16 16 15 14 14 13 12 11 11 11 11 11 11 11 10 9 8 6 4 2 5 7 8 8 3 8 5 9 11 10 9 9 10
13 12 18 21 19 20 19 19 18 17 16 16 16 15 14 14 12 11 10 10 9 9 10 10 9 7 6 5 3 1 4 7 10 6 7 6 7 11 11 11 10 9 9
14 12 13 19 20 20 20 19 19 18 17 17 16 15 14 13 12 11 10 9 8 8 9 9 8 7 6 5 3 1 5 8 6 4 5 6 7 13 11 9 9 10 7
17 15 13 16 19 19 19 19 19 18 17 17 16 15 14 13 12 11 9 9 8 8 7 8 7 7 6 6 5 4 5 7 7 7 2 2 11 13 12 11 9 8 9
15 14 12 11 14 18 18 18 18 17 16 16 15 13 13 12 11 11 10 9 8 8 8 8 8 7 6 5 5 6 6 7 5 5 7 3 11 14 14 12 10 9 8
15 12 11 11 11 11 11 17 17 17 16 15 14 13 12 12 11 10 10 9 8 8 8 8 7 7 7 7 7 8 8 10 6 6 6 4 13 13 13 12 11 9 9
13 13 11 11 10 10 9 11 14 16 14 14 12 13 11 5 6 8 8 10 9 9 8 7 7 6 7 8 9 11 11 3 5 5 4 7 15 14 14 13 12 11 10
15 13 12 11 10 10 9 9 7 9 7 6 6 7 5 6 6 9 9 11 12 10 9 8 7 8 7 4 4 10 4 4 5 6 4 12 17 15 14 13 12 12 12
19 14 15 13 11 12 9 6 4 4 4 4 7 7 5 5 5 5 3 4 4 9 4 5 5 4 6 5 5 5 5 4 4 5 6 15 15 14 13 12 11 12 13
20 19 16 14 13 12 9 8 7 6 5 4 5 7 5 3 4 5 4 6 5 4 5 5 4 6 7 8 8 6 6 5 4 4 5 13 12 11 11 13 14 14 13
19 22 21 19 17 10 13 10 9 8 7 7 6 7 6 5 5 5 5 5 5 4 5 5 6 7 7 7 7 7 6 5 6 4 2 12 12 13 14 14 13 13 14
25 12 22 22 16 12 12 13 11 9 10 8 8 9 10 6 5 4 5 5 5 5 5 5 5 4 5 4 6 8 6 6 7 6 4 5 13 14 13 14 14 15 16
7 12 10 7 10 10 10 10 10 9 10 9 9 10 12 8 7 6 5 4 5 5 5 4 8 9 2 3 7 6 2 4 6 5 6 4 5 12 13 15 15 17 16
12 18 14 10 14 6 6 7 5 8 9 8 9 9 12 10 7 6 4 4 4 3 6 4 4 4 12 6 4 5 3 3 7 9 9 5 5 5 7 15 14 15 17
12 10 10 15 14 16 5 3 4 5 5 5 6 9 14 12 10 6 3 3 3 5 5 6 2 3 7 10 4 2 2 4 6 2 4 5 4 5 6 14 20 16 21
10 23 16 6 21 20 6 5 3 3 2 3 4 6 12 10 9 6 5 4 3 5 3 3 6 7 11 6 3 4 4 4 5 4 3 5 5 8 4 4 4 4 17
15 19 18 11 16 14 9 7 4 5 3 2 3 7 8 10 10 8 5 5 4 4 7 9 8 7 0 3 3 4 4 4 5 3 3 4 4 3 2 0 4 2 5
21 17 18 16 27 24 13 8 4 5 4 5 5 6 8 9 9 7 7 6 5 4 5 4 3 1 1 1 3 1 3 5 4 4 3 2 4 1 2 2 4 5 6
10 20 16 20 28 15 8 5 1 1 2 2 4 4 6 10 8 7 6 5 3 2 4 4 5 6 3 1 2 4 0 4 3 2 1 1 4 3 3 5 5 5 8
18 15 14 10 9 8 9 8 8 5 6 4 5 5 6 9 9 7 8 7 4 4 4 3 5 4 4 3 2 2 2 4 2 4 3 1 2 3 4 4 4 8 8
8 10 8 8 7 6 6 5 4 4 4 2 2 6 5 6 8 7 7 6 6 5 5 6 5 5 4 3 3 1 1 1 3 3 3 5 2 4 2 4 3 4 6
8 7 6 8 6 5 6 7 5 3 5 1 2 3 4 4 5 5 6 7 6 6 5 5 5 5 5 4 3 3 4 3 3 2 2 4 3 4 2 2 4 3 3
Wind_Direction
142 141 134 134 130 127 127 125 123 119 114 110 104 102 99 99 101 103 103 102 104 102 100 93 89 86 85 82 76 74 75 78 84 87 89 93 98 91 69 85 86 89 83
134 140 132 132 131 130 129 129 129 126 123 119 117 116 113 111 109 108 105 104 102 103 103 100 95 92 89 88 82 76 75 73 73 84 94 91 94 99 92 87 92 91 86
132 140 135 137 137 135 134 133 132 131 127 125 124 124 122 117 110 110 111 111 107 108 107 105 104 101 99 96 87 63 54 53 54 55 140 130 122 114 104 101 98 94 92
138 143 141 143 142 141 140 139 138 136 134 132 131 131 127 121 120 120 118 113 110 112 112 112 110 108 109 105 94 44 11 14 5 325 245 209 159 139 114 107 106 108 103
143 147 146 144 143 143 144 143 142 142 140 137 136 136 135 138 137 131 124 120 121 127 126 123 121 122 123 117 105 13 359 349 332 320 281 181 155 145 131 123 119 117 110
148 142 148 145 148 147 148 147 146 148 146 142 145 147 149 146 145 137 132 128 131 138 135 132 132 130 130 128 139 327 343 333 329 330 346 173 153 149 148 138 135 138 137
148 136 144 150 149 149 151 152 150 152 149 150 153 153 153 152 150 145 140 134 141 143 145 145 142 143 148 150 168 293 318 318 316 315 331 183 143 157 159 148 149 146 152
147 140 150 153 150 151 153 153 153 155 154 155 156 156 153 155 154 150 145 145 152 152 157 157 159 166 172 178 193 224 273 300 320 320 8 233 160 163 162 160 165 169 170
140 141 146 151 154 154 154 155 155 155 155 155 157 157 156 160 158 157 154 161 163 165 173 177 179 186 194 206 228 249 261 274 295 294 301 179 189 173 171 167 175 182 192
141 148 150 149 153 152 156 157 156 155 155 157 159 158 161 163 163 164 166 175 176 180 188 194 197 201 214 222 230 242 246 251 252 266 275 216 196 188 176 173 179 193 208
145 155 157 156 156 148 148 163 153 153 156 160 163 163 162 161 168 174 180 189 190 193 199 205 211 217 231 238 242 245 247 245 250 251 246 233 190 192 183 185 182 191 214
155 165 162 165 162 152 156 157 151 156 160 163 165 168 168 178 180 185 196 199 194 200 205 211 219 228 235 239 256 254 238 228 248 261 255 226 187 189 188 192 191 197 205
163 172 174 165 165 163 153 158 153 149 162 176 174 173 186 197 197 201 191 192 184 201 200 203 220 228 226 233 238 241 233 210 240 257 273 195 196 191 194 199 198 210 216
171 170 172 165 172 178 148 163 164 160 169 175 184 175 185 208 202 199 176 181 181 196 198 206 204 212 220 231 238 230 216 206 226 245 239 190 197 201 206 209 210 218 222
178 172 169 169 179 167 159 167 166 170 173 178 175 182 187 205 217 203 187 179 185 184 193 210 208 213 221 226 238 244 232 251 259 251 195 198 199 210 216 221 219 223 229
335 187 165 170 178 158 168 172 174 170 177 176 181 189 197 199 212 208 201 182 193 186 192 212 219 223 246 241 260 246 228 244 268 255 235 216 204 218 225 232 229 229 232
346 333 26 192 168 155 177 179 178 173 176 179 184 187 195 201 205 207 207 220 203 183 185 39 15 344 330 207 244 254 91 267 258 264 257 243 227 218 225 237 236 232 238
66 355 341 8 341 156 158 160 185 185 175 183 180 182 194 206 200 196 196 201 225 62 106 95 87 16 311 303 298 273 197 241 290 288 270 255 244 233 223 231 237 238 235
114 51 8 322 319 305 183 146 172 186 165 177 162 182 193 199 205 185 184 232 130 120 119 129 100 140 227 280 253 269 178 211 232 274 298 300 315 310 16 28 26 12 359
194 154 148 275 291 300 213 174 186 232 196 190 179 169 181 192 196 176 185 199 145 130 119 157 155 196 217 230 294 316 298 309 338 347 29 60 29 77 85 107 120 9 323
158 146 159 157 294 265 224 185 184 200 202 187 187 167 180 185 180 176 182 202 204 180 182 185 205 185 61 56 46 334 322 287 283 119 53 31 25 89 256 35 166 105 256
175 172 165 166 199 240 217 184 179 185 205 195 189 185 185 179 180 169 175 198 202 193 230 214 167 132 145 138 155 116 325 332 340 353 45 50 343 351 261 263 200 213 251
226 181 192 196 188 194 174 167 188 112 45 181 192 205 192 189 172 169 174 177 222 197 257 192 166 157 169 347 130 157 355 228 348 343 326 326 322 322 209 263 240 251 269
204 191 186 171 158 168 167 180 184 169 187 215 191 196 183 176 172 178 182 180 180 164 195 211 182 152 137 179 331 228 203 156 157 334 327 314 3 293 299 209 230 244 253
167 173 177 173 167 176 159 146 171 160 191 250 175 176 166 167 164 169 180 157 174 161 204 170 147 141 146 144 175 236 356 320 162 151 264 318 342 309 306 312 257 248 241
108 105 141 162 175 153 177 169 148 71 222 200 52 183 168 154 146 188 183 175 169 177 185 187 162 165 166 169 180 187 177 197 225 141 191 272 250 276 276 323 354 325 316